Regional Weather Roundup
Issued by NWS

Home | Current Version | Previous Version | Text Only | Print | Product List | Glossary On
Versions: 1 2 3 4 5 6 7 8 9 10 11 12 13 14 15 16 17 18 19 20 21 22 23 24 25 26 27 28 29 30 31 32 33 34 35 36 37 38 39 40 41 42 43 44 45 46 47 48 49 50
000
ASUS43 KMPX 160910
RWRMN
WEATHER ROUNDUP FOR MINNESOTA
NATIONAL WEATHER SERVICE TWIN CITIES/CHANHASSEN MN
400 AM CDT WED AUG 16 2017


NOTE: "FAIR" INDICATES FEW OR NO CLOUDS BELOW 12,000 FEET WITH NO
SIGNIFICANT WEATHER AND/OR OBSTRUCTIONS TO VISIBILITY. N/A MEANS
CURRENT SKY AND/OR WEATHER CONDITIONS ARE NOT AVAILABLE.

MNZ060>063-068>070-161000-
   Twin Cities Metro

CITY           SKY/WX    TMP DP  RH WIND       PRES   REMARKS
TWIN CITIES    RAIN      64  61  90 SE10      29.96F FOG
ST PAUL        RAIN      64  63  96 SE8       29.97S FOG
CRYSTAL        RAIN      64  60  87 SE6       29.94F FOG
BLAINE         RAIN      66  63  88 SE6       29.96S
LAKEVILLE      RAIN      61  61 100 E6        29.95F
EDEN PRAIRIE   LGT RAIN  65  63  93 E9        29.93F
SOUTH ST PAUL  RAIN      64  63  97 SE3       29.97S
LAKE ELMO      RAIN      63  61  94 SE5       29.99S
$$
MNZ001>005-007-008-013>017-022>024-027-028-161000-
   Northwest Minnesota

CITY           SKY/WX    TMP DP  RH WIND       PRES   REMARKS
BEMIDJI        CLOUDY    64  61  90 E7        29.96S
HALLOCK        LGT RAIN  63  63 100 CALM      29.90R
ROSEAU           N/A     64  61  88 CALM      29.93S
WARROAD        CLOUDY    66  63  88 S6        29.94S
THIEF RVR FALL LGT RAIN  64  60  87 SE7       29.93R
CROOKSTON      LGT RAIN  64  61  88 SE6       29.91R
FOSSTON        CLOUDY    61  55  82 CALM      29.93S
DETROIT LAKES  CLOUDY    63  59  88 SE9       29.92S
MOORHEAD       CLOUDY    64  61  88 SE5       29.88F
PARK RAPIDS    CLOUDY    65  58  78 SE6       29.93S
MAHNOMEN       CLOUDY    64  58  81 SE6       29.91S
$$
MNZ006-009>011-018-025>026-161000-
   North Central Minnesota

CITY           SKY/WX    TMP DP  RH WIND       PRES   REMARKS
BAUDETTE       CLOUDY    65  60  84 SE8       29.95S
FLAG ISLAND    CLOUDY    70  63  78 CALM      29.91F
INTL FALLS     CLOUDY    62  51  67 SE7       29.98S
WASKISH        CLOUDY    63  61  94 SE3       29.96S
BIG FORK       MOCLDY    61  54  77 E3        29.99S
LONGVILLE      MOCLDY    61  59  94 CALM      29.97R
GRAND RAPIDS   CLOUDY    59  54  83 VRB5      30.01R
CRANE LAKE     CLOUDY    54  52  94 CALM      30.03S
ORR            CLOUDY    57  45  62 SE3       29.99S
COOK             N/A     59  46  63 CALM      30.02S
WALKER         CLOUDY    64  59  85 SE6       29.95S
$$
MNZ012-019>021-037-161000-
   Northeast Minnesota

CITY           SKY/WX    TMP DP  RH WIND       PRES   REMARKS
DULUTH         CLOUDY    57  56  96 E7        30.01F
ELY            PTCLDY    55  46  71 SE6       30.03F
HIBBING        CLOUDY    54  51  90 CALM      30.00S
EVELETH        CLOUDY    55  48  78 CALM      30.02S
DULUTH HARBOR  MOCLDY    64  61  88 NE15      30.01S
TWO HARBORS    CLOUDY    61  55  82 NE3       30.01F
GRAND MARAIS     N/A     51  48  89 NE3       30.06R
G MARAIS ARPRT CLOUDY    46  39  76 E3        30.08S
$$
MNZ029>031-032-039>041-046>048-054>057-064-161000-
   West Central Minnesota

CITY           SKY/WX    TMP DP  RH WIND       PRES   REMARKS
FERGUS FALLS   CLOUDY    64  61  88 SE9       29.88F
WHEATON        CLOUDY    64  61  88 SE7       29.88S
MORRIS         CLOUDY    64  63  94 SE9       29.87S
ALEXANDRIA     CLOUDY    64  60  87 SE12      29.92S
ELBOW LAKE     CLOUDY    64  61  91 SE7       29.89R
WADENA         CLOUDY    61  57  88 E6        29.92S
GLENWOOD       PTCLDY    63  61  94 SE9       29.91S
APPLETON       CLOUDY    66  63  88 SE8       29.87R
BENSON         CLOUDY    66  61  82 S10G16    29.90R
ORTONVILLE     CLOUDY    64  61  88 MISG      29.86S FOG
MADISON        CLOUDY    68  68 100 SE7       29.87R
WILLMAR        CLOUDY    66  63  88 SE9       29.92R
$$
MNZ033>034-036-042>043-049>051-058-059-161000-
   Central Minnesota

CITY           SKY/WX    TMP DP  RH WIND       PRES   REMARKS
ST CLOUD       CLOUDY    62  60  93 SE3       29.94S
SAUK CENTRE    CLOUDY    63  60  90 SE8       29.91F
PAYNESVILLE    CLOUDY    64  62  91 SE9       29.92S
AITKIN         CLOUDY    61  57  88 E3        29.97R
PINE RIVER     CLOUDY    61  57  88 SE7       29.98S
BRAINERD       CLOUDY    64  58  80 SE5       29.95S
STAPLES        CLOUDY    63  57  82 SE6       29.93S
LONG PRAIRIE   MOCLDY    61  59  94 E7        29.93S
LITTLE FALLS   CLOUDY    61  55  82 E6        29.94S
LITCHFIELD     MOCLDY    66  64  94 SE9       29.92S
BUFFALO        LGT RAIN  64  61  90 E7        29.95S
MAPLE LAKE     CLOUDY    65  64  96 SE3       29.94F
HUTCHINSON     CLOUDY    65  64  95 E10       29.92F
$$
MNZ037-044-045-052-053-161000-
   East Central Minnesota

CITY           SKY/WX    TMP DP  RH WIND       PRES   REMARKS
PRINCETON      CLOUDY    63  59  88 E3        29.95S
MORA           CLOUDY    55  54  94 CALM      29.98F
RUSH CITY      CLOUDY    61  56  85 E3        29.98R
MOOSE LAKE     CLOUDY    59  54  82 CALM      29.98R
HINCKLEY       FAIR      61  59  94 E3        29.99R
CLOQUET        CLOUDY    59  55  88 E7        30.01R
MCGREGOR       CLOUDY    59  55  88 E3        29.99R
$$
MNZ071>073-080-081-089-090-097-098-161000-
   Southwest Minnesota

CITY           SKY/WX    TMP DP  RH WIND       PRES   REMARKS
MONTEVIDEO     CLOUDY    64  64 100 S9        29.88S
GRANITE FALLS  CLOUDY    67  65  91 E7        29.89S
CANBY          CLOUDY    65  64  94 CALM      29.87S
MARSHALL       CLOUDY    67  65  93 S9        29.87S
REDWOOD FALLS  CLOUDY    65  62  90 SE12      29.88S
OLIVIA         CLOUDY    64  61  88 E7        29.89S
PIPESTONE      CLOUDY    66  64  94 S8        29.89R
WINDOM         RAIN      66  64  94 SE8       29.89S
WORTHINGTON    CLOUDY    66  65  96 S9        29.91R
JACKSON        CLOUDY    64  64 100 CALM      29.91R FOG
TRACY          CLOUDY    67  66  97 S10       29.88R
SLAYTON        CLOUDY    65  60  85 SE8       29.89S HAZE
$$
MNZ065>067-074>077-082>085-091>093-161000-
   South Central Minnesota

CITY           SKY/WX    TMP DP  RH WIND       PRES   REMARKS
MANKATO        CLOUDY    65  63  93 SE13      29.92F
NEW ULM        CLOUDY    64  63  94 E9        29.91S
ST JAMES       CLOUDY    64  63  94 E8        29.91S
FAIRMONT       LGT RAIN  66  64  93 SE10      29.91F
GLENCOE        CLOUDY    65  65 100 E9        29.92F
FARIBAULT      CLOUDY    64  63  94 E5        29.95F
OWATONNA       MOCLDY    64  63  94 E5        29.95S
WASECA         CLOUDY    63  61  94 E8        29.94F
ALBERT LEA     MOCLDY    66  66 100 SE7       29.93F
$$
MNZ078>079-086>088-094>096-161000-
   Southeast Minnesota

CITY           SKY/WX    TMP DP  RH WIND       PRES   REMARKS
ROCHESTER      CLOUDY    63  62  97 SE9       29.97R
RED WING       LGT RAIN  64  63  94 E7        29.96F
STANTON        LGT RAIN  64  62  91 E6        29.95S
DODGE CENTER   CLOUDY    63  61  94 E5        29.96F
WINONA         CLOUDY    63  63 100 SE6       29.98S
AUSTIN         CLOUDY    64  61  88 E5        29.94F
PRESTON        CLOUDY    64  60  87 SE6       29.98S
$$
ABBREVIATIONS USED IN REMARKS
   TC - TEMPERATURES IN CELSIUS
  WCI - WIND CHILL INDEX
   HX - HEAT INDEX
  VSB - VISIBILITY
$$




USA.gov is the U.S. government's official web portal to all federal, state and local government web resources and services.